Weather History for Land O' Lakes, WI

Change the Weather History Date:

Monday, February 3, 2014

  Actual Average (KEGV) Record (KEGV)
Temperature  
Mean Temperature -1 °F -  
Max Temperature 24 °F 32 °F 48 °F (1991)
Min Temperature -26 °F 10 °F -22 °F (2014)
Degree Days  
Heating Degree Days 66    
Moisture  
Dew Point -6 °F    
Average Humidity 70    
Maximum Humidity 86    
Minimum Humidity 52    
Precipitation  
Precipitation 0.00 in - - ()
Sea Level Pressure  
Sea Level Pressure 30.13 in    
Wind  
Wind Speed 2 mph (WSW)    
Max Wind Speed 10 mph    
Max Gust Speed 18 mph    
Visibility 10 miles    
Events      
Averages and records for this station are not official NWS values.
T = Trace of Precipitation, MM = Missing Value Source: NWS Daily Summary

Daily Weather History Graph

Daily Weather History Graph

Search for Another Location

Airport:

Trip Planner

Search our weather history database for the weather conditions in past years. The results will help you decide how hot, cold, wet, or windy it might be!

Date:

Astronomy

Feb. 03, 2014 Rise Set
Actual Time 7:16 AM CST 5:04 PM CST
Civil Twilight 6:45 AM CST 5:36 PM CST
Nautical Twilight 6:09 AM CST 6:12 PM CST
Astronomical Twilight 5:34 AM CST 6:47 PM CST
Moon 9:02 AM CST (2/3) 10:14 PM CST (2/3)
Length of Visible Light 10h 51m
Length of Day
9h 47m
Waxing Crescent, 20% of the Moon is Illuminated
Feb 3
Waxing Crescent
Feb 6
First Quarter
Feb 14
Full
Feb 22
Last Quarter
Mar 1
New

Hourly Weather History & Observations

Time (CST) Temp. Windchill Dew Point Humidity Pressure Visibility Wind Dir Wind Speed Gust Speed Precip Events Conditions
12:15 AM -19.5 °F - -25.4 °F 74% 30.13 in 10.0 mi Calm Calm - N/A   Clear
12:35 AM -20.4 °F - -26.5 °F 73% 30.13 in 10.0 mi Calm Calm - N/A   Clear
12:55 AM -21.3 °F - -27.8 °F 72% 30.13 in 10.0 mi Calm Calm - N/A   Clear
1:15 AM -21.3 °F - -27.6 °F 73% 30.14 in 10.0 mi Calm Calm - N/A   Clear
1:35 AM -22.0 °F - -28.1 °F 73% 30.14 in 10.0 mi Calm Calm - N/A   Clear
1:55 AM -22.2 °F - -28.5 °F 72% 30.15 in 10.0 mi Calm Calm - N/A   Clear
2:15 AM -22.5 °F - -28.7 °F 73% 30.15 in 10.0 mi Calm Calm - N/A   Clear
2:35 AM -23.3 °F - -29.6 °F 72% 30.14 in 10.0 mi Calm Calm - N/A   Clear
2:55 AM -23.8 °F - -29.9 °F 73% 30.14 in 10.0 mi Calm Calm - N/A   Clear
3:15 AM -21.8 °F - -28.1 °F 73% 30.14 in 10.0 mi Calm Calm - N/A   Clear
3:35 AM -23.3 °F - -29.2 °F 74% 30.14 in 10.0 mi Calm Calm - N/A   Clear
3:55 AM -23.8 °F - -30.1 °F 72% 30.14 in 10.0 mi Calm Calm - N/A   Clear
4:15 AM -25.1 °F - -31.4 °F 72% 30.14 in 10.0 mi Calm Calm - N/A   Clear
4:35 AM -25.1 °F - -31.4 °F 72% 30.14 in 10.0 mi Calm Calm - N/A   Clear
4:55 AM -25.1 °F - -31.7 °F 71% 30.15 in 10.0 mi Calm Calm - N/A   Clear
5:15 AM -25.2 °F - -31.9 °F 71% 30.14 in 10.0 mi Calm Calm - N/A   Clear
5:35 AM -24.9 °F - -31.4 °F 72% 30.13 in 10.0 mi Calm Calm - N/A   Clear
5:55 AM -24.7 °F - -30.8 °F 73% 30.13 in 10.0 mi Calm Calm - N/A   Clear
6:15 AM -25.8 °F - -32.3 °F 71% 30.13 in 10.0 mi Calm Calm - N/A   Clear
6:35 AM -26.0 °F - -32.6 °F 71% 30.13 in 10.0 mi Calm Calm - N/A   Clear
6:55 AM -26.1 °F - -32.4 °F 72% 30.13 in 10.0 mi Calm Calm - N/A   Clear
7:15 AM -25.4 °F - -31.7 °F 72% 30.13 in 10.0 mi Calm Calm - N/A   Clear
7:35 AM -24.9 °F - -31.2 °F 72% 30.13 in 10.0 mi Calm Calm - N/A   Clear
7:55 AM -22.9 °F - -29.2 °F 72% 30.13 in 10.0 mi Calm Calm - N/A   Clear
8:15 AM -18.9 °F -29.5 °F -24.9 °F 74% 30.13 in 10.0 mi SSW 3.5 mph - N/A   Clear
8:35 AM -11.0 °F - -15.3 °F 81% 30.13 in 10.0 mi Calm Calm - N/A   Clear
8:55 AM -3.8 °F - -8.0 °F 82% 30.13 in 10.0 mi Calm Calm - N/A   Clear
9:15 AM -0.8 °F - -4.9 °F 83% 30.13 in 10.0 mi Calm Calm - N/A   Clear
9:35 AM 1.8 °F -7.8 °F -2.7 °F 81% 30.13 in 10.0 mi SSW 4.6 mph - N/A   Clear
9:55 AM 5.4 °F -3.6 °F 0.3 °F 80% 30.13 in 10.0 mi SW 4.6 mph - N/A   Clear
10:15 AM 7.7 °F -3.7 °F 1.4 °F 75% 30.13 in 10.0 mi SW 6.9 mph - N/A   Clear
10:35 AM 9.3 °F -0.5 °F 2.5 °F 74% 30.13 in 10.0 mi SW 5.8 mph - N/A   Clear
10:55 AM 11.1 °F 3.1 °F 3.2 °F 70% 30.12 in 10.0 mi SSW 4.6 mph - N/A   Clear
11:15 AM 13.8 °F 4.9 °F 4.6 °F 67% 30.11 in 10.0 mi SW 5.8 mph - N/A   Clear
11:35 AM 16.3 °F 6.7 °F 5.7 °F 63% 30.10 in 10.0 mi SW 6.9 mph - N/A   Clear
11:55 AM 18.5 °F 6.8 °F 7.0 °F 61% 30.10 in 10.0 mi SSW 10.4 mph - N/A   Clear
12:15 PM 20.3 °F 9.0 °F 7.5 °F 58% 30.09 in 10.0 mi SW 10.4 mph 16.1 mph N/A   Clear
12:35 PM 21.7 °F 10.8 °F 8.2 °F 56% 30.08 in 7.0 mi SW 10.4 mph 18.4 mph N/A   Clear
12:55 PM 23.0 °F 12.4 °F 8.4 °F 54% 30.07 in 10.0 mi SSW 10.4 mph - N/A   Clear
1:15 PM 23.9 °F 14.2 °F 9.0 °F 53% 30.06 in 10.0 mi SSW 9.2 mph - N/A   Clear
1:35 PM 24.8 °F 15.3 °F 9.5 °F 52% 30.06 in 10.0 mi SW 9.2 mph - N/A   Clear
1:55 PM 24.4 °F 14.2 °F 9.5 °F 53% 30.06 in 10.0 mi SSW 10.4 mph - N/A   Clear
2:15 PM 23.9 °F 13.5 °F 9.5 °F 54% 30.06 in 10.0 mi SSW 10.4 mph 16.1 mph N/A   Clear
2:35 PM 23.2 °F 13.3 °F 9.5 °F 56% 30.06 in 10.0 mi SW 9.2 mph - N/A   Clear
2:55 PM 22.8 °F 15.5 °F 9.7 °F 57% 30.07 in 10.0 mi SW 5.8 mph - N/A   Clear
3:15 PM 22.5 °F 16.3 °F 9.9 °F 59% 30.07 in 10.0 mi SW 4.6 mph - N/A   Clear
3:35 PM 22.5 °F 14.1 °F 10.2 °F 59% 30.08 in 10.0 mi SW 6.9 mph - N/A   Clear
3:55 PM 22.1 °F 17.4 °F 10.4 °F 61% 30.09 in 10.0 mi SW 3.5 mph - N/A   Scattered Clouds
4:15 PM 22.1 °F 14.7 °F 10.4 °F 61% 30.09 in 10.0 mi WSW 5.8 mph - N/A   Mostly Cloudy
4:35 PM 21.9 °F 17.2 °F 10.8 °F 62% 30.09 in 10.0 mi WSW 3.5 mph - N/A   Overcast
4:55 PM 21.0 °F 12.4 °F 10.9 °F 65% 30.10 in 10.0 mi West 6.9 mph - N/A   Mostly Cloudy
5:15 PM 19.4 °F 12.8 °F 10.2 °F 68% 30.11 in 10.0 mi West 4.6 mph - N/A   Scattered Clouds
5:35 PM 18.5 °F 13.3 °F 10.0 °F 70% 30.11 in 10.0 mi West 3.5 mph - N/A   Clear
5:55 PM 18.0 °F 11.1 °F 9.9 °F 71% 30.12 in 10.0 mi West 4.6 mph - N/A   Clear
6:15 PM 17.6 °F 12.3 °F 9.5 °F 71% 30.13 in 10.0 mi West 3.5 mph - N/A   Clear
6:35 PM 16.7 °F 11.2 °F 9.5 °F 73% 30.13 in 10.0 mi West 3.5 mph - N/A   Mostly Cloudy
6:55 PM 17.4 °F 12.1 °F 9.5 °F 71% 30.14 in 10.0 mi WSW 3.5 mph - N/A   Overcast
7:15 PM 17.1 °F 8.7 °F 9.3 °F 72% 30.15 in 10.0 mi West 5.8 mph - N/A   Overcast
7:35 PM 16.7 °F 8.3 °F 8.6 °F 70% 30.15 in 10.0 mi West 5.8 mph - N/A   Overcast
7:55 PM 16.2 °F 7.6 °F 8.4 °F 72% 30.17 in 10.0 mi West 5.8 mph - N/A   Overcast
8:15 PM 15.8 °F 8.6 °F 8.6 °F 73% 30.17 in 10.0 mi WNW 4.6 mph - N/A   Overcast
8:35 PM 15.1 °F 5.2 °F 7.2 °F 71% 30.17 in 10.0 mi NW 6.9 mph - N/A   Overcast
8:55 PM 14.5 °F 5.7 °F 6.6 °F 71% 30.17 in 10.0 mi WNW 5.8 mph - N/A   Overcast
9:15 PM 13.8 °F 6.2 °F 5.9 °F 71% 30.17 in 10.0 mi WNW 4.6 mph - N/A   Overcast
9:35 PM 12.9 °F 2.6 °F 5.4 °F 72% 30.18 in 10.0 mi NW 6.9 mph - N/A   Overcast
9:55 PM 12.4 °F 3.1 °F 4.8 °F 72% 30.19 in 10.0 mi WNW 5.8 mph - N/A   Overcast
10:15 PM 12.0 °F 5.9 °F 4.8 °F 73% 30.19 in 10.0 mi NW 3.5 mph - N/A   Overcast
10:35 PM 11.3 °F 5.1 °F 4.6 °F 75% 30.20 in 10.0 mi West 3.5 mph - N/A   Overcast
10:55 PM 10.6 °F - 4.1 °F 75% 30.20 in 10.0 mi Calm Calm - N/A   Overcast
11:15 PM 9.1 °F 2.6 °F 3.9 °F 79% 30.21 in 10.0 mi West 3.5 mph - N/A   Scattered Clouds
11:35 PM 5.5 °F - 1.2 °F 82% 30.21 in 10.0 mi Calm Calm - N/A   Mostly Cloudy
11:55 PM 4.8 °F - 1.6 °F 86% 30.22 in 10.0 mi Calm Calm - N/A   Overcast